Regional Weather Roundup
Issued by NWS Green Bay, WI

Home | Current Version | Previous Version | Text Only | Print | Product List | Glossary On
Versions: 1 2 3 4 5 6 7 8 9 10 11 12 13 14 15 16 17 18 19 20 21 22 23 24 25 26 27 28 29 30 31 32 33 34 35 36 37 38 39 40 41 42 43 44 45 46 47 48 49 50
000
ASUS43 KGRB 210559
RWRGRB

NORTH-CENTRAL AND NORTHEAST WISCONSIN REGIONAL WEATHER ROUNDUP
NATIONAL WEATHER SERVICE GREEN BAY WI
100 AM CDT THU AUG 21 2014

WIZ005-009-010>012-018-019-210700-
NORTH CENTRAL WISCONSIN

CITY           SKY/WX    TMP DP  RH WIND       PRES   REMARKS
IRONWOOD         N/A     54  54 100 CALM      29.94F
MANITOWISH WTR NOT AVBL
ARBOR VITAE    NOT AVBL
EAGLE RIVER    NOT AVBL
LAND O LAKES   NOT AVBL
RHINELANDER    MOCLDY    61  59  93 E5        29.98F
PHILLIPS       MOCLDY    55  55 100 CALM      29.97S FOG
ANTIGO         NOT AVBL
TOMAHAWK       NOT AVBL
MERRILL        NOT AVBL
$$

WIZ013-073-210700-
NORTHEAST WISCONSIN

CITY           SKY/WX    TMP DP  RH WIND       PRES   REMARKS
IRON MOUNTAIN  CLOUDY    64  61  90 CALM      29.97R
MARINETTE      CLOUDY    66  63  88 CALM      29.95S
$$

WIZ017-030-035>037-045-210700-
CENTRAL WISCONSIN

CITY           SKY/WX    TMP DP  RH WIND       PRES   REMARKS
MEDFORD        NOT AVBL
WAUSAU           N/A     60  59  96 CALM      29.95S
MOSINEE        NOT AVBL
MARSHFIELD       N/A     63  60  90 E5        29.95S
WISC RAPIDS    MOCLDY    64  62  93 E5        29.97R
STEVENS POINT  NOT AVBL
WAUPACA        NOT AVBL
SHAWANO          N/A     61  59  93 CALM      29.96S
CLINTONVILLE   NOT AVBL
$$

WIZ038-039-048-051-210700-
FOX VALLEY

CITY           SKY/WX    TMP DP  RH WIND       PRES   REMARKS
NWS GREEN BAY    N/A     61  60  97 S5        29.97R FOG
APPLETON       NOT AVBL
OSHKOSH        MOCLDY    64  63  96 S5        29.96S
FOND DU LAC    MOCLDY    65  61  87 SE7       29.97S
$$

WIZ022-050-052-210700-
EAST CENTRAL WISCONSIN

CITY           SKY/WX    TMP DP  RH WIND       PRES   REMARKS
STURGEON BAY   CLOUDY    64  61  88 S3        29.97S
MANITOWOC      NOT AVBL
SHEBOYGAN        N/A     61  60  97 CALM      29.98S FOG
$$

LMZ563-521-522-541>543-210700-
LAKESHORE

STATION/POSITION TIME  TEMP    WIND        PRES    VSBY  WAVE
                       AIR SEA DIR/SP/G                  HT/PER
                 (UTC) (F)     (DEG/KT/KT) (MB)    (MI)  (FT/S)
SHEBOYGAN LKSHOR 0500   66 65  120/  3/  3 1015.0R
KEWAUNEE LKSHORE 0500   64      CALM  /  2 1013.9R
NORTHPORT PIER   0500   64     210/  3/  5 1014.2S
N MID LAKE BUOY  0500   62 62  240/  4/  6 1013.8R         0
S GREEN BAY BUOY 0500   68     VRB  6      1015.3R
SISTER BAY LKSHO 0500   64     170/  7/  9   N/A
CHAMBERS ISLAND  0500   65     120/  4/  5 1014.6S
MENOMINEE LKSHOR 0500   67     150/  4/  6 1015.0R
$$


USA.gov is the U.S. government's official web portal to all federal, state and local government web resources and services.